Starlink 30291

operational
NORAD ID: 57856 Int'l Des: 2023-141 Owner: SPXS Country: US Constellation: starlink
LEOCIRCULAR

About Starlink 30291

Description loading...

Live Position

Loading 3D Globe...

Upcoming Passes

Altitude History

Altitude vs Time

uPlot chart will show altitude changes over time

Two-Line Element Set

1 57856U 23141S 25257.56854952 -.00001251 00000-0 -30146-4 0 9996
2 57856 53.1630 22.1483 0001084 69.0108 291.1009 15.30188037113360
Epoch: Sep 14, 2025 • Age: 19 hours

Current Status

Altitude 479.9 km
Velocity 7.63 km/s
Sub-Earth Point 47.13°N, 16.18°E
Launch Date Sep 12, 2023
Age 2 years
Type internet

Technical Details

Classification Payload
Mass 730.00 kg
Dry Mass 700.00 kg
Total Mass 730.00 kg
Length 0.30 m
Diameter 4.10 m
Span 29.00 m
Shape Box + pan
Manufacturer SPXS
Bus Type Starlink V2M
Phase Status In Orbit
Owner/State SPXS/US

Large Constellations

Loading constellations...